Tracking 35051 objects as of 17-Aug-2026
HD Live streaming from Space Station
objects crossing your sky now

SUPERBIRD C

Track SUPERBIRD C now!
SUPERBIRD C is classified as:


NORAD ID: 24880
Int'l Code: 1997-036A
Launch date: July 28, 1997
Source: Japan (JPN)
Launch site: AIR FORCE EASTERN TEST RANGE (AFETR)

14 Ku-band; Asia-Pacific region; voice and video communications.
Your satellite tracking list
Your tracking list is empty




NASA's NSSDC Master Catalog

Two Line Element Set (TLE):
1 24880U 97036A   26228.82076523 -.00000290  00000-0  00000-0 0  9992
2 24880  12.1707  33.3420 0005237 338.5950  21.4512  0.99074087 65478
Source of the keplerian elements: AFSPC